TDRS 13

Last updated on Sat Dec 13 2025 00:02:40 GMT+0000 (Coordinated Universal Time)

1 42915U 17047A 25346.20278532 -.00000094 00000+0 00000+0 0 9991 2 42915 3.4245 357.9540 0009395 124.2235 20.4769 1.00272139 30476
UTC large
Height (km)
Speed (km/s)
/
Latitude / Longitude
Inclination (degrees)
Orbital Period (minutes)
Azimuth
Elevation
Range (km)
Doppler Factor

Next 0 passes for location: London (51.5072 / 0.1276)

Sorry there are no passes over London.